Preview of NWS' New Version of Forecast
This preview is not operational and should not be used for support decisions.

Regional Weather Roundup (RWR)

Issued by National Weather Service (NWS)

                            
000
ASUS42 KTBW 180615
RWRFL 
FLORIDA REGIONAL WEATHER ROUNDUP
NATIONAL WEATHER SERVICE TAMPA BAY RUSKIN FL
200 AM EDT THU APR 18 2019

NOTE: "FAIR" INDICATES FEW OR NO CLOUDS BELOW 12,000 FEET WITH NO
SIGNIFICANT WEATHER AND/OR OBSTRUCTIONS TO VISIBILITY.

FLZ001>010-012>015-112-114-115-180700-
PANHANDLE FLORIDA
  
CITY           SKY/WX    TMP DP  RH WIND       PRES   REMARKS
PENSACOLA      FAIR      70  70 100 SE12      29.96F                  
PENSACOLA NAS  MOCLDY    70  69  97 SE13      29.96F                  
MILTON NAS     FAIR      66  66 100 SE8       29.97                   
CRESTVIEW      FOG       59  58  96 CALM      29.99F VSB 1            
DUKE FIELD     FAIR      63  63 100 SE3       29.98F                  
VALPARAISO     FAIR      67  65  96 SE3       29.98F                  
MARY ESTHER    PTCLDY    69  66  90 S9        29.97F                  
PANAMA CITY    FAIR      60  57  89 CALM      29.99F                  
TYNDALL AFB    FAIR      64  61  93 SE7       29.98F                  
APALACHICOLA   FAIR      59  56  89 E3        30.01F                  

STATION/POSITION SKY/WX   TEMP    WIND        PRES    WAVE   SWELL
                          AIR SEA DIR/SP/G            HT/PER HT/PER
                          (F)     (DEG/KT/KT) (MB)    (FT/S) (FT/S)
30.1N   87.6W                                 1014.8F
29.2N   88.2W                     130/ 14/ 16 1014.1
PANAMA CITY BEAC           69 71  110/  8/  9 1015.9F
TOWER C          NOT AVBL

$$
FLZ011-016>038-118-127-128-134-139-239-180700-
NORTH FLORIDA
  
CITY           SKY/WX    TMP DP  RH WIND       PRES   REMARKS
MARIANNA       FAIR      62  60  93 CALM      30.00F                  
TALLAHASSEE    FAIR      59  57  93 CALM      30.02F                  
PERRY          FAIR      66  62  87 E6        30.04F                  
LIVE OAK       CLOUDY    66  64  94 E5        30.04F                  
CROSS CITY     FAIR      66  62  87 SE3       30.04F                  
LAKE CITY      FAIR      63  61  94 CALM      30.05F                  
GAINESVILLE    FAIR      68  62  81 E5        30.07F                  
PALATKA        CLOUDY   N/A N/A N/A SE3       30.05F                  
MAYPORT NAS    FAIR      70  66  87 SE8       30.06F                  
JACKSONVILLE   MOCLDY    65  63  93 NE3       30.05F                  
JAX NAS        MOCLDY    71  65  81 SE8       30.06F                  
JAX CECIL      FAIR      61  59  94 CALM      30.05F                  
FERNANDINA BEA FAIR      69  66  92 SE6       30.06F                  
ST AUGUSTINE   FAIR      67  64  90 CALM      30.06F                  
PALM COAST     MOCLDY    66  63  89 CALM      30.06F                  

STATION/POSITION SKY/WX   TEMP    WIND        PRES    WAVE   SWELL
                          AIR SEA DIR/SP/G            HT/PER HT/PER
                          (F)     (DEG/KT/KT) (MB)    (FT/S) (FT/S)
SHELL POINT      NOT AVBL
KEATON BEACH               66      70/  7/  7 1016.8F
CEDAR KEY                  73     150/ 16/ 19 1016.9F
FERNANDINA                 70 71  110/  3/  5 1018.7F
30.7N   81.3W                 68                N/A     2/ 8
MAYPORT                    69 70  140/  2/  4 1018.1F
31.4N   80.9W              68 67  130/  8/  8 1018.6F   2/ 8   2/ 8
ST AUGUSTINE               72 71  130/  7/  8 1017.8F

$$
FLZ040-043>046-052-053-057-058-063-144-180700-
INTERIOR CENTRAL FLORIDA
  
CITY           SKY/WX    TMP DP  RH WIND       PRES   REMARKS
OCALA          FAIR      67  61  81 SE5       30.05F                  
LEESBURG       FAIR      70  61  73 SE8       30.05F                  
SANFORD        FAIR      66  62  87 CALM      30.05F                  
ORLANDO EXEC   FAIR      65  61  87 SE7       30.05F                  
ORLANDO INTL   MOCLDY    68  61  78 E6        30.05F                  
KISSIMMEE      FAIR      69  63  81 E3        30.06F                  
WINTER HAVEN   FAIR      70  63  78 E8        30.06F                  
LAKELAND       FAIR      68  61  77 E9        30.05F                  
BARTOW         FAIR      68  63  83 E7        30.04F                  
SEBRING        MOCLDY    64  60  87 E7        30.05F                  
OKEECHOBEE     MOCLDY    63  59  88 NE3       30.04F                  

$$
FLZ041-047-054-059-064-141-147-180700-
EAST CENTRAL FLORIDA
  
CITY           SKY/WX    TMP DP  RH WIND       PRES   REMARKS
DAYTONA BEACH  MOCLDY    69  65  86 CALM      30.05F                  
DELAND         FAIR      64  61  88 CALM      30.05F                  
JFK SPACE CTR  MOCLDY    70  61  73 SE5       30.04F                  
CAPE CANAVERAL FAIR      70  60  71 E6        30.04F                  
PATRICK AFB    MOCLDY    75  63  65 SE13      30.04F                  
MELBOURNE      MOCLDY    75  62  64 SE10      30.04F                  
VERO BEACH     FAIR      72  61  68 E7        30.05F                  
FT PIERCE      FAIR      69  60  73 E3        30.04F                  
STUART         MOCLDY    73  63  68 E9        30.05F                  

STATION/POSITION SKY/WX   TEMP    WIND        PRES    WAVE   SWELL
                          AIR SEA DIR/SP/G            HT/PER HT/PER
                          (F)     (DEG/KT/KT) (MB)    (FT/S) (FT/S)
28.5N   80.2W              76     120/ 12/ 14 1018.1F   4/ 9   3/ 9
28.9N   78.5W              74 77  110/ 14/ 19 1019.3F   4/ 8   3/ 8
TRIDENT PIER               73 77  100/  6/ 10 1018.7F
28.4N   80.5W                 77                N/A     3/ 4
27.5N   80.2W                 76                N/A     3/10

$$
FLZ050-056-061-142-242-148-248-149-249-151-251-155-255-
160-260-180700-
WEST CENTRAL FLORIDA
  
CITY           SKY/WX    TMP DP  RH WIND       PRES   REMARKS
CRYSTAL RIVER  FAIR      61  59  94 SE3       30.04F                  
INVERNESS      FAIR      64  64 100 CALM      30.05F                  
BROOKSVILLE    FAIR      67  60  78 E6        30.04F                  
CLEARWATER AIR FAIR      70  61  73 SE9G16    30.02F                  
ST PETE CLEARW FAIR      69  62  78 SE9       30.03F                  
TAMPA INTL     FAIR      72  61  68 SE10      30.03F                  
TAMPA EXEC     FAIR      68  61  77 SE3       30.04F                  
PLANT CITY     FAIR      70  63  78 E6        30.06F                  
MACDILL AFB    FAIR      70  62  76 SE8       30.03F                  
PETER O KNIGHT CLOUDY    70  64  83 SE7       30.04F                  
ST PETERSBURG  FAIR      72  64  76 SE20      30.01F                  
SARASOTA       MOCLDY    69  61  75 E10       30.01F                  
VENICE         FAIR      68  63  83 E7        30.03F                  

STATION/POSITION SKY/WX   TEMP    WIND        PRES    WAVE   SWELL
                          AIR SEA DIR/SP/G            HT/PER HT/PER
                          (F)     (DEG/KT/KT) (MB)    (FT/S) (FT/S)
27.3N   84.2W                 75                N/A     2/ 5
CLEARWATER BEACH           73 78  110/ 11/ 14 1016.9F
MIDDLE TAMPA BAY           71     130/ 12/ 15 1017.0F
VENICE                     69 78   90/  6/  8 1016.5F

$$
FLZ066-069-070-075>078-162-262-165-265-180700-
SOUTHWEST FLORIDA AND KEYS
  
CITY           SKY/WX    TMP DP  RH WIND       PRES   REMARKS
PUNTA GORDA    MOCLDY    67  61  81 SE6       30.04F                  
FT MYERS       FAIR      67  61  81 E3        30.02F                  
SOUTHWEST INTL FAIR      67  60  78 NE3       30.03F                  
NAPLES         FAIR      70  65  84 E5        30.01F                  
MARCO ISLAND   FAIR      68  63  84 E5        30.02F                  
IMMOKALEE      FAIR      61  57  88 CALM      30.01F                  
MARATHON       MOCLDY    80  70  71 E9        29.98F                  
KEY WEST NAS   FAIR      78  70  76 E14       29.98F                  
KEY WEST INTL  MOCLDY    78  71  79 E14       29.99F                  

STATION/POSITION SKY/WX   TEMP    WIND        PRES    WAVE   SWELL
                          AIR SEA DIR/SP/G            HT/PER HT/PER
                          (F)     (DEG/KT/KT) (MB)    (FT/S) (FT/S)
NAPLES                     72 80  100/  5/  7 1016.4F
DRY TORTUGAS               77     120/ 15/ 17 1015.3F
SAND KEY                   77                 1015.1F
SOMBRERO KEY               78                 1014.8F

$$
FLZ067-068-071>074-168-172>174-180700-
SOUTHEAST FLORIDA 
  
CITY           SKY/WX    TMP DP  RH WIND       PRES   REMARKS
W PALM BEACH   FAIR      75  61  61 SE9       30.03F                  
FT LAUDER-EXEC FAIR      76  66  71 E9        30.01F                  
FT LAUDERDALE  FAIR      76  66  71 E9        30.01F                  
POMPANO BEACH  FAIR      77  66  68 E10       30.01F                  
PEMBROKE PINES FAIR      74  65  73 E7        30.02F                  
OPA LOCKA      FAIR      74  66  76 E7        30.01F                  
MIAMI          FAIR      75  68  78 E9        30.01F                  
WEST KENDALL   FAIR      71  67  87 E8        30.00F                  
HOMESTEAD      FAIR      75  69  79 E8        29.99F                  

STATION/POSITION SKY/WX   TEMP    WIND        PRES    WAVE   SWELL
                          AIR SEA DIR/SP/G            HT/PER HT/PER
                          (F)     (DEG/KT/KT) (MB)    (FT/S) (FT/S)
PORT EVERGLADES            77     100/  4/ 10 1017.2
VIRGINIA KEY               78 81   90/  9/ 12 1015.7F
LAKE WORTH                 76 78  110/ 12/ 14 1017.9F
SETTLEMENT POINT           74      90/ 13/ 15 1017.1F

$$